ANA1106 RJCC-RJTT

Flight info

Callsign ANA1106
Flight time N/A
Altitude 38000
Route TOBBY Y10 GODIN
Aircraft A20N/M-SDE2E3FGHIRWXY/LB1

Departure

Time 2026-05-08 11:45
Airport New Chitose Airport (RJCC)

Arrival

Time N/A
Airport Tokyo Haneda International Airport (RJTT)
Time Latitude Longitude Altitude Speed Heading
2026-05-08 11:37 42.78669 141.68259 99 ft 0 kts 284°
2026-05-08 11:39 42.78656 141.68328 97 ft 10 kts 285°
2026-05-08 11:39 42.78654 141.68416 92 ft 7 kts 218°
2026-05-08 11:39 42.78693 141.68415 98 ft 0 kts 182°
2026-05-08 11:41 42.78752 141.68419 94 ft 10 kts 189°
2026-05-08 11:41 42.78796 141.68410 92 ft 0 kts 169°
2026-05-08 11:42 42.78781 141.68427 94 ft 1 kts 127°
2026-05-08 11:42 42.78790 141.68490 100 ft 16 kts 74°
2026-05-08 11:42 42.78814 141.68675 76 ft 17 kts 82°
2026-05-08 11:42 42.78822 141.68776 88 ft 15 kts 92°
2026-05-08 11:43 42.78791 141.68824 85 ft 0 kts 172°
2026-05-08 11:45 42.78742 141.68833 84 ft 42 kts 173°
2026-05-08 11:45 42.78357 141.68900 82 ft 122 kts 173°
2026-05-08 11:45 42.76881 141.69174 970 ft 172 kts 174°
2026-05-08 11:45 42.76066 141.69209 1994 ft 175 kts 179°
2026-05-08 11:46 42.74799 141.69104 3380 ft 191 kts 183°
2026-05-08 11:46 42.73414 141.68948 4618 ft 215 kts 184°
2026-05-08 11:46 42.71838 141.68788 5891 ft 240 kts 185°
2026-05-08 11:46 42.70111 141.68654 7296 ft 253 kts 183°
2026-05-08 11:47 42.68326 141.68795 8932 ft 260 kts 179°
2026-05-08 11:47 42.66490 141.68925 10406 ft 271 kts 181°
2026-05-08 11:47 42.64521 141.69031 11476 ft 295 kts 181°
2026-05-08 11:47 42.62391 141.69173 12548 ft 316 kts 181°
2026-05-08 11:48 42.60173 141.69365 14015 ft 321 kts 181°
2026-05-08 11:48 42.57943 141.69584 15566 ft 322 kts 181°
2026-05-08 11:48 42.55692 141.69810 16882 ft 328 kts 181°
2026-05-08 11:48 42.53361 141.70037 17930 ft 345 kts 181°
2026-05-08 11:49 42.50879 141.70271 18486 ft 370 kts 181°
2026-05-08 11:49 42.48224 141.70524 18999 ft 393 kts 180°
2026-05-08 11:49 42.45465 141.70797 20030 ft 398 kts 180°
2026-05-08 11:49 42.42701 141.71073 21380 ft 397 kts 179°
2026-05-08 11:50 42.39983 141.71343 22435 ft 397 kts 179°
2026-05-08 11:50 42.37208 141.71612 23140 ft 402 kts 179°
2026-05-08 11:50 42.34408 141.71884 23770 ft 405 kts 179°
2026-05-08 11:50 42.31584 141.72159 24312 ft 409 kts 179°
2026-05-08 11:51 42.28730 141.72437 24904 ft 413 kts 180°
2026-05-08 11:51 42.25849 141.72718 25394 ft 416 kts 180°
2026-05-08 11:51 42.22954 141.72999 25714 ft 419 kts 180°
2026-05-08 11:51 42.20056 141.73283 26396 ft 413 kts 181°
2026-05-08 11:52 42.17181 141.73567 26966 ft 413 kts 181°
2026-05-08 11:52 42.14320 141.73846 27483 ft 410 kts 182°
2026-05-08 11:52 42.11507 141.74126 28415 ft 402 kts 182°
2026-05-08 11:52 42.08712 141.74401 28937 ft 404 kts 183°
2026-05-08 11:53 42.05905 141.74670 29258 ft 407 kts 183°
2026-05-08 11:53 42.03080 141.74942 29831 ft 403 kts 184°
2026-05-08 11:53 42.00358 141.75213 30696 ft 394 kts 184°
2026-05-08 11:53 41.97626 141.75478 31161 ft 395 kts 184°
2026-05-08 11:54 41.94886 141.75738 31555 ft 396 kts 184°
2026-05-08 11:54 41.92126 141.75999 31714 ft 395 kts 184°
2026-05-08 11:54 41.89426 141.76261 31689 ft 385 kts 185°
2026-05-08 11:55 41.84080 141.76755 31687 ft 386 kts 185°
2026-05-08 11:55 41.78721 141.77247 31684 ft 385 kts 185°
2026-05-08 11:56 41.73374 141.77742 31684 ft 385 kts 185°
2026-05-08 11:56 41.68023 141.78237 31686 ft 385 kts 185°
2026-05-08 11:57 41.62681 141.78729 31685 ft 385 kts 185°
2026-05-08 11:57 41.57334 141.79221 31688 ft 385 kts 185°
2026-05-08 11:58 41.52045 141.79535 31684 ft 378 kts 190°
2026-05-08 11:58 41.46859 141.78749 31687 ft 369 kts 198°
2026-05-08 11:59 41.39442 141.76323 31682 ft 367 kts 200°
2026-05-08 11:59 41.34491 141.74706 31681 ft 366 kts 200°
2026-05-08 12:00 41.29548 141.73101 31685 ft 365 kts 200°
2026-05-08 12:00 41.24605 141.71498 31677 ft 364 kts 200°
2026-05-08 12:01 41.19683 141.69903 31682 ft 364 kts 200°
2026-05-08 12:01 41.14771 141.68315 31681 ft 363 kts 200°
2026-05-08 12:02 41.09882 141.66734 31682 ft 363 kts 200°
2026-05-08 12:02 41.04964 141.65149 31681 ft 364 kts 200°
2026-05-08 12:03 41.00036 141.63564 31680 ft 364 kts 200°
2026-05-08 12:03 40.95100 141.61977 31683 ft 365 kts 200°
2026-05-08 12:04 40.90158 141.60393 31685 ft 365 kts 200°
2026-05-08 12:04 40.85223 141.58812 31687 ft 365 kts 200°
2026-05-08 12:05 40.80288 141.57235 31689 ft 364 kts 201°
2026-05-08 12:05 40.75385 141.55669 31692 ft 364 kts 201°
2026-05-08 12:06 40.70461 141.54099 31693 ft 364 kts 201°
2026-05-08 12:06 40.65542 141.52533 31695 ft 364 kts 201°
2026-05-08 12:07 40.62278 141.51495 31696 ft 364 kts 201°